Theta_e
352 352 352 352 350 349 350 351 353 353 352 353 353 351 351 351 349 350 351 350 347 348 351 350 351 351 351 351 352 352 351 351 349 347 346 344 350 349 349 341 343 349 352
351 350 350 349 353 353 351 349 352 349 351 352 353 353 353 352 352 352 352 348 350 351 351 350 350 350 350 350 350 351 353 352 353 343 346 345 341 343 349 350 344 342 348
350 350 351 350 354 352 352 352 350 352 352 352 352 351 352 352 351 350 352 352 351 351 350 350 350 350 349 348 349 350 351 352 345 350 349 350 351 351 349 341 341 350 343
350 351 350 350 353 351 350 351 353 353 353 353 352 352 352 352 352 353 352 352 352 352 351 350 350 349 349 349 348 349 350 343 340 348 351 349 348 350 351 350 350 347 344
351 353 352 348 353 347 340 349 350 353 352 348 349 347 349 350 351 351 352 352 352 352 352 348 347 347 348 347 344 342 345 342 343 348 346 349 349 347 345 348 345 347 346
349 351 347 345 351 350 347 348 345 352 353 350 349 350 351 351 352 352 351 350 349 349 349 345 344 346 348 343 342 342 341 342 347 347 343 346 349 344 345 348 344 342 340
347 348 352 351 349 350 349 348 348 353 350 351 349 348 350 350 345 342 340 339 339 339 345 346 346 342 341 341 342 344 341 344 348 347 347 349 348 351 350 349 345 344 343
346 346 345 346 350 346 346 349 350 352 350 348 348 346 344 339 340 342 344 344 345 345 346 340 338 341 340 338 344 348 339 343 343 344 347 348 342 348 350 347 348 345 344
343 346 348 352 348 352 352 350 349 347 349 350 345 344 344 344 345 345 345 344 345 346 348 347 344 344 342 341 346 343 340 342 345 345 345 345 337 343 348 345 345 339 339
341 346 347 347 345 344 344 342 342 346 345 344 344 345 344 345 348 345 349 344 345 345 351 352 350 346 343 344 343 336 340 343 345 344 346 342 342 343 344 344 344 344 345
342 346 345 345 345 346 345 347 344 343 344 347 347 347 351 352 351 352 344 344 347 346 347 346 345 342 339 338 338 344 346 345 345 345 344 337 338 342 343 343 344 345 345
341 343 342 344 346 349 350 352 352 353 353 354 352 354 352 351 351 349 347 346 346 346 344 344 348 349 349 348 346 345 347 345 343 343 340 339 341 343 343 343 343 346 349
342 341 342 344 347 349 349 350 351 350 352 352 356 354 354 353 354 353 354 354 353 353 352 351 351 355 352 349 350 345 344 343 343 345 340 340 342 343 341 340 340 340 340
341 342 343 343 347 351 348 349 350 350 351 351 352 356 356 348 351 350 351 349 352 349 349 351 350 351 349 350 350 347 347 345 345 344 344 342 344 342 338 334 333 331 332
339 340 342 347 352 352 351 352 348 348 347 348 350 354 352 350 354 351 347 347 351 352 347 349 350 352 350 348 350 350 347 347 346 346 347 341 341 339 334 332 331 331 333
338 340 347 351 352 353 354 352 350 350 351 348 351 355 357 352 353 353 352 346 347 352 353 354 354 352 351 350 349 348 349 348 346 347 348 345 338 336 333 333 339 339 332
338 341 349 351 353 354 354 353 352 350 348 350 353 356 357 354 357 354 347 347 348 351 353 353 350 349 347 348 348 346 343 345 344 343 349 348 344 336 331 330 335 332 332
337 343 349 350 353 352 353 353 351 350 349 351 351 354 356 355 356 357 348 349 348 347 347 347 346 343 346 347 347 348 344 345 346 345 346 349 349 345 335 328 327 330 329
337 346 350 351 351 352 354 353 352 354 350 351 350 351 355 355 357 354 352 352 347 342 342 342 347 345 349 347 347 347 347 347 350 348 346 346 344 345 345 331 328 329 329
340 347 350 351 351 353 354 353 351 352 350 350 351 354 358 354 354 359 353 354 351 346 342 346 350 349 347 348 346 348 348 347 346 346 347 348 346 342 341 344 343 340 332
341 347 351 353 354 354 353 351 351 350 350 350 353 356 353 352 354 358 353 357 354 349 349 349 343 347 347 351 346 346 348 348 346 344 344 342 346 343 341 340 339 341 341
342 345 350 352 356 355 352 351 350 349 349 349 352 353 352 355 358 357 357 354 359 358 356 349 346 339 338 344 344 343 347 346 341 337 338 338 339 336 337 340 338 337 337
342 342 347 350 355 356 351 352 356 354 354 353 354 353 353 355 358 358 358 358 358 354 354 346 341 337 336 335 339 341 341 337 333 339 337 333 334 332 333 332 335 336 338
343 342 346 351 355 355 354 351 354 353 351 349 350 353 352 354 356 357 358 360 361 355 355 349 344 336 339 334 335 334 336 334 337 335 337 336 333 332 332 331 331 334 338
344 342 347 352 354 354 355 357 353 353 349 350 350 352 355 357 356 356 359 360 360 358 359 354 350 341 331 335 333 333 333 331 334 331 331 330 330 332 331 331 332 332 335
348 344 346 354 356 355 354 357 355 352 354 350 352 354 351 352 355 357 359 360 360 363 359 357 352 347 339 332 333 331 330 330 330 330 330 330 330 331 331 331 331 331 331
Wind_Speed
12 11 10 8 9 9 9 9 7 8 9 10 10 10 11 10 9 10 10 11 12 14 15 14 14 13 11 11 10 10 10 12 11 13 15 15 13 15 13 12 14 12 12
15 12 11 8 10 9 9 8 8 9 10 11 11 11 11 10 10 11 12 12 15 15 14 14 13 12 11 10 10 9 9 10 11 12 13 14 13 12 11 11 15 12 11
17 12 10 8 10 10 10 10 10 11 11 11 12 11 11 11 12 12 13 13 14 13 12 12 12 11 10 9 9 9 9 8 9 10 10 14 11 11 11 9 11 10 11
16 14 11 9 10 10 10 9 11 11 11 12 11 10 11 11 11 11 12 13 13 12 10 10 10 9 8 8 8 8 8 7 8 5 3 2 12 9 10 10 10 9 10
16 14 11 10 10 9 10 11 12 12 11 11 10 9 10 10 10 10 10 10 10 9 8 8 8 9 7 6 5 6 8 7 8 5 4 13 10 10 9 9 9 8 10
15 15 11 10 9 10 12 9 10 10 11 9 9 9 9 9 8 7 7 7 8 7 7 9 9 8 6 5 5 5 6 9 8 7 8 7 11 10 8 6 4 7 7
13 13 11 10 10 12 11 10 11 9 8 8 7 7 7 7 6 5 5 6 6 7 8 8 7 5 5 5 4 7 12 12 6 4 5 12 9 8 7 7 6 6 5
17 14 12 10 10 8 8 9 9 8 7 7 6 6 6 5 4 5 5 5 6 7 8 4 4 4 4 4 7 9 12 12 10 7 7 9 9 8 6 5 5 5 4
14 14 12 10 10 10 9 8 8 7 6 6 5 5 4 3 3 4 5 6 7 7 8 2 7 5 6 7 14 11 10 10 7 8 7 8 8 7 6 7 5 4 4
14 14 13 11 11 10 9 9 8 6 5 4 3 3 4 5 6 8 5 6 7 7 7 8 9 9 9 12 12 11 14 11 8 8 8 8 9 8 7 5 4 4 3
13 11 13 11 11 11 10 7 7 6 7 7 7 4 4 5 6 6 5 8 9 9 10 10 12 12 15 14 13 14 10 10 10 8 8 8 8 8 7 7 6 4 4
15 14 14 13 12 12 12 6 7 6 6 5 6 3 8 8 5 10 7 9 8 11 13 11 14 15 17 15 13 11 7 9 9 9 8 10 10 9 8 9 8 8 8
15 14 14 13 12 11 10 11 10 7 10 8 6 6 5 6 6 10 6 6 6 10 11 10 7 9 8 8 12 11 9 12 11 12 9 11 11 10 10 10 11 10 10
16 14 14 14 9 11 10 9 11 10 11 8 8 4 5 8 8 4 5 7 2 11 2 11 13 9 9 7 10 9 11 10 17 13 10 12 12 11 10 11 12 11 12
16 15 14 14 7 8 5 7 9 9 12 9 9 3 13 6 8 9 5 10 6 4 8 7 9 5 7 10 5 8 4 8 19 14 13 12 11 9 10 11 11 12 12
17 16 15 14 12 10 9 9 7 10 9 9 10 7 4 5 6 3 3 8 4 5 10 9 7 4 11 6 7 4 8 13 5 16 15 14 12 11 10 10 11 12 11
18 17 16 16 14 10 10 11 7 10 11 9 7 7 5 6 3 2 9 10 9 6 5 5 3 4 4 8 10 5 6 4 9 2 18 17 16 12 11 11 10 9 9
19 19 17 16 14 11 10 9 9 8 9 9 11 10 6 5 2 5 9 10 6 6 6 5 4 4 5 8 6 6 7 6 4 2 9 10 13 12 11 9 7 7 7
20 20 18 15 16 12 11 10 10 7 8 8 8 10 5 7 4 6 10 6 7 7 7 6 5 6 5 7 9 6 4 5 5 7 4 1 3 6 11 8 5 7 5
22 21 18 16 15 13 12 11 13 9 9 9 6 11 4 6 1 7 8 4 5 7 7 7 7 5 5 3 9 6 4 3 2 3 3 6 7 1 1 4 7 9 8
23 24 21 18 16 16 15 14 12 13 11 9 8 7 5 4 4 5 8 5 10 7 6 3 5 4 6 2 7 6 4 4 2 2 1 3 3 3 1 4 5 5 8
25 25 24 20 17 18 15 13 12 12 11 11 10 7 5 6 6 8 4 6 4 9 6 5 3 3 5 2 5 4 5 7 5 3 3 3 3 5 5 3 3 5 5
27 28 26 23 20 19 16 13 7 8 8 8 9 8 7 6 6 7 7 6 4 6 8 6 5 3 5 3 3 5 2 4 4 6 3 3 3 4 5 5 4 5 5
28 28 27 24 22 20 17 17 15 13 13 13 11 10 8 6 5 5 4 5 6 8 6 6 4 4 3 6 3 6 6 4 4 2 6 4 1 3 3 4 2 3 3
30 31 29 26 24 22 21 15 18 16 13 11 11 10 5 7 5 3 3 3 3 7 7 6 4 4 4 4 4 3 3 1 2 4 3 3 4 1 4 2 2 2 3
31 32 32 29 26 24 23 19 17 17 11 14 11 11 10 9 8 6 4 3 2 3 5 4 4 6 6 5 4 2 4 4 5 4 5 6 3 1 3 2 3 4 5
Wind_Direction
136 136 134 130 119 107 102 100 97 95 89 87 87 87 95 99 96 91 96 94 96 86 86 85 85 85 81 82 93 101 104 106 105 111 111 110 105 102 94 104 102 94 96
136 136 130 127 116 113 114 114 101 100 92 90 87 86 86 90 91 98 98 96 93 94 89 89 87 86 84 83 92 102 107 114 122 122 120 106 104 106 95 90 98 94 100
123 134 128 121 124 115 106 105 98 94 96 91 89 90 89 90 90 89 90 95 93 90 87 86 85 87 89 91 93 102 112 114 125 141 135 127 106 94 90 96 92 86 87
127 131 130 123 120 112 107 102 98 96 94 93 93 95 93 90 91 89 89 87 90 87 87 87 84 81 82 85 98 107 113 122 128 127 255 49 109 105 95 95 94 87 91
123 131 125 132 120 108 114 106 101 99 95 99 104 93 91 89 88 87 88 88 86 82 79 80 82 81 76 86 98 112 125 122 119 20 68 65 103 102 99 86 85 83 106
141 119 128 131 120 115 111 108 107 98 106 96 93 89 88 86 85 86 84 82 79 75 57 57 62 75 83 88 94 111 127 140 95 93 94 73 81 90 95 95 95 80 75
127 123 128 129 120 109 112 108 113 101 102 98 97 89 82 78 80 79 75 72 71 69 63 61 75 87 114 113 123 129 113 132 136 111 64 65 82 95 92 92 82 70 68
123 130 132 131 131 131 126 113 117 111 106 103 93 85 83 79 81 74 64 61 68 76 87 90 25 48 109 125 146 141 135 116 120 114 87 80 100 100 99 98 105 74 78
135 135 134 133 128 124 125 128 125 126 115 105 100 98 93 97 78 74 72 78 83 91 107 87 71 90 123 116 137 139 140 145 151 127 116 97 98 94 84 86 101 74 77
141 143 139 135 137 138 130 136 136 136 120 112 121 112 117 105 75 77 82 82 94 100 110 125 118 127 117 121 132 118 116 125 144 137 92 109 104 98 93 98 93 76 65
144 148 140 144 146 140 141 143 131 113 106 104 92 110 102 133 105 101 102 100 101 113 121 121 120 125 108 112 119 119 108 111 122 120 106 116 109 105 96 93 90 76 54
157 156 152 151 142 155 142 151 163 132 91 111 104 157 98 85 100 98 104 96 107 117 112 114 126 139 127 126 131 124 136 124 113 102 111 109 108 100 91 90 76 65 58
160 159 151 147 170 143 122 154 123 104 131 109 104 76 100 122 171 159 139 146 147 159 148 140 124 171 195 120 127 100 131 134 126 94 109 114 108 91 89 88 80 75 68
160 157 155 145 170 136 145 142 148 139 129 131 101 146 126 106 99 64 78 115 154 74 167 91 106 113 108 80 109 145 141 110 120 105 113 119 107 112 104 94 88 82 74
162 157 147 148 150 139 156 114 111 144 110 114 107 39 78 89 95 71 55 74 43 14 114 88 96 126 116 125 118 52 76 84 117 118 126 120 114 105 101 91 87 84 80
164 162 152 154 149 154 117 148 146 94 136 115 104 91 63 93 60 99 65 69 44 101 49 66 51 46 122 184 120 101 150 123 128 147 137 138 136 136 114 100 100 97 81
167 166 158 156 154 156 146 159 156 168 122 122 105 101 89 83 46 163 70 53 58 80 116 110 155 125 109 115 86 138 66 105 102 53 146 152 155 151 133 119 113 103 86
169 168 169 168 159 161 157 162 159 142 139 133 127 116 126 103 346 328 75 60 51 64 79 71 61 107 129 90 95 134 96 91 105 180 109 146 147 150 141 133 132 130 110
170 170 177 165 161 165 159 163 146 158 154 125 136 115 99 80 21 39 60 75 68 72 66 72 87 114 131 126 127 118 115 129 207 86 59 89 87 140 150 159 156 161 161
171 173 179 175 164 167 166 163 154 176 151 152 136 106 121 100 28 350 93 60 68 83 72 67 60 84 111 42 94 103 86 117 107 93 125 218 112 303 224 148 189 190 188
177 177 181 185 167 173 170 183 166 168 157 155 126 113 119 113 98 349 114 136 109 82 82 91 108 78 101 104 142 135 136 153 160 90 24 8 108 214 343 270 302 156 196
182 184 183 186 180 182 183 199 180 169 166 156 133 139 129 119 122 87 63 83 29 112 96 79 11 107 94 31 333 288 165 156 153 82 38 2 12 326 312 254 292 271 276
184 188 186 189 186 193 190 200 196 159 142 149 143 157 147 140 113 96 76 69 57 52 78 78 68 9 98 80 26 338 287 45 328 143 125 54 10 331 336 307 272 267 269
188 187 186 191 190 194 195 192 190 183 182 182 172 136 146 151 137 113 96 70 32 71 65 74 63 64 353 88 107 52 45 33 352 54 152 147 108 352 346 310 322 288 274
189 188 188 188 192 196 198 208 189 217 193 170 169 144 155 156 165 135 105 94 55 70 72 74 61 67 57 39 42 56 48 64 92 345 345 11 356 42 354 318 299 270 227
194 189 189 184 193 197 195 207 202 211 225 180 176 171 178 175 176 170 147 116 100 105 80 71 77 60 66 81 78 66 30 7 3 325 320 315 325 280 312 302 252 251 256